| time (UTC) | temp F | wind direction | speed MPH | gust MPH | rain 1hr in | rain 24hr in | rain mn in | humidity % | barometer mb |
| 20260508142904 | 59 | 249 | 4.0 | 10.0 | 0.00 | 0.00 | 0.00 | 1013.6 | |
| 20260508142403 | 59 | 242 | 3.0 | 12.0 | 0.00 | 0.00 | 0.00 | 1013.6 | |
| 20260508141924 | 59 | 239 | 4.0 | 12.0 | 0.00 | 0.00 | 0.00 | 1013.9 | |
| 20260508141403 | 58 | 222 | 2.0 | 9.0 | 0.00 | 0.00 | 0.00 | 1013.6 | |
| 20260508140924 | 58 | 253 | 4.0 | 14.0 | 0.00 | 0.00 | 0.00 | 1013.6 | |
| 20260508140403 | 58 | 266 | 4.0 | 14.0 | 0.00 | 0.00 | 0.00 | 1013.6 | |
| 20260508135925 | 58 | 216 | 4.0 | 15.0 | 0.00 | 0.00 | 0.00 | 1013.2 | |
| 20260508135403 | 57 | 264 | 5.0 | 15.0 | 0.00 | 0.00 | 0.00 | 1013.6 | |
| 20260508134903 | 57 | 248 | 3.0 | 15.0 | 0.00 | 0.00 | 0.00 | 1013.2 | |
| 20260508134424 | 56 | 236 | 2.0 | 13.0 | 0.00 | 0.00 | 0.00 | 1013.9 | |
| 20260508133903 | 56 | 250 | 5.0 | 13.0 | 0.00 | 0.00 | 0.00 | 1013.6 | |
| 20260508133402 | 56 | 217 | 3.0 | 11.0 | 0.00 | 0.00 | 0.00 | 1013.2 | |
| 20260508132903 | 56 | 249 | 4.0 | 11.0 | 0.00 | 0.00 | 0.00 | 1013.9 | |
| 20260508132403 | 56 | 240 | 4.0 | 11.0 | 0.00 | 0.00 | 0.00 | 1013.9 | |
| 20260508131903 | 55 | 240 | 5.0 | 11.0 | 0.00 | 0.00 | 0.00 | 1014.3 | |
| 20260508131424 | 55 | 205 | 4.0 | 14.0 | 0.00 | 0.00 | 0.00 | 1013.6 | |
| 20260508130903 | 55 | 268 | 6.0 | 14.0 | 0.00 | 0.00 | 0.00 | 1013.2 | |
| 20260508130402 | 55 | 242 | 2.0 | 7.0 | 0.00 | 0.00 | 0.00 | 1014.3 | |
| 20260508125903 | 54 | 207 | 3.0 | 6.0 | 0.00 | 0.00 | 0.00 | 1013.2 | |
| 20260508125402 | 54 | 200 | 3.0 | 6.0 | 0.00 | 0.00 | 0.00 | 1013.2 | |
| 20260508124903 | 53 | 203 | 2.0 | 6.0 | 0.00 | 0.00 | 0.00 | 1013.6 | |
| 20260508124403 | 53 | 197 | 2.0 | 6.0 | 0.00 | 0.00 | 0.00 | 1013.2 | |
| 20260508123903 | 53 | 203 | 2.0 | 5.0 | 0.00 | 0.00 | 0.00 | 1012.9 | |
| 20260508123402 | 52 | 197 | 3.0 | 5.0 | 0.00 | 0.00 | 0.00 | 1013.6 | |
| 20260508122903 | 52 | 202 | 2.0 | 5.0 | 0.00 | 0.00 | 0.00 | 1013.2 | |
| 20260508122402 | 51 | 206 | 2.0 | 5.0 | 0.00 | 0.00 | 0.00 | 1013.6 | |
| 20260508121903 | 51 | 200 | 3.0 | 5.0 | 0.00 | 0.00 | 0.00 | 1013.2 | |
| 20260508121403 | 50 | 202 | 2.0 | 5.0 | 0.00 | 0.00 | 0.00 | 1013.6 | |
| 20260508120924 | 50 | 194 | 2.0 | 5.0 | 0.00 | 0.00 | 0.00 | 1013.2 | |
| 20260508120403 | 50 | 210 | 2.0 | 5.0 | 0.00 | 0.00 | 0.00 | 1013.2 | |
| 20260508115903 | 50 | 203 | 2.0 | 5.0 | 0.00 | 0.00 | 0.00 | 1013.2 | |
| 20260508115403 | 50 | 208 | 2.0 | 5.0 | 0.00 | 0.00 | 0.00 | 1013.2 | |
| 20260508114903 | 49 | 205 | 2.0 | 5.0 | 0.00 | 0.00 | 0.00 | 1013.2 | |
| 20260508114403 | 49 | 204 | 2.0 | 5.0 | 0.00 | 0.00 | 0.00 | 1013.6 | |
| 20260508113903 | 49 | 218 | 1.0 | 4.0 | 0.00 | 0.00 | 0.00 | 1012.9 | |
| 20260508113403 | 49 | 197 | 2.0 | 5.0 | 0.00 | 0.00 | 0.00 | 1013.2 | |
| 20260508112924 | 49 | 205 | 3.0 | 5.0 | 0.00 | 0.00 | 0.00 | 1012.9 | |
| 20260508112403 | 49 | 214 | 2.0 | 5.0 | 0.00 | 0.00 | 0.00 | 1012.9 | |
| 20260508111903 | 49 | 204 | 2.0 | 5.0 | 0.00 | 0.00 | 0.00 | 1012.9 | |
| 20260508111403 | 49 | 196 | 1.0 | 3.0 | 0.00 | 0.00 | 0.00 | 1012.9 | |
| 20260508110903 | 49 | 202 | 1.0 | 3.0 | 0.00 | 0.00 | 0.00 | 1013.2 | |
| 20260508110403 | 48 | 213 | 2.0 | 3.0 | 0.00 | 0.00 | 0.00 | 1013.2 | |
| 20260508105902 | 48 | 205 | 2.0 | 3.0 | 0.00 | 0.00 | 0.00 | 1012.9 | |
| 20260508105403 | 48 | 207 | 1.0 | 3.0 | 0.00 | 0.00 | 0.00 | 1012.9 | |
| 20260508104924 | 48 | 211 | 0.0 | 6.0 | 0.00 | 0.00 | 0.00 | 1012.9 | |
| 20260508104424 | 48 | 211 | 2.0 | 6.0 | 0.00 | 0.00 | 0.00 | 1013.2 | |
| 20260508103903 | 48 | 201 | 1.0 | 4.0 | 0.00 | 0.00 | 0.00 | 1013.2 | |
| 20260508103403 | 47 | 210 | 2.0 | 4.0 | 0.00 | 0.00 | 0.00 | 1013.2 | |
| 20260508102904 | 47 | 196 | 2.0 | 4.0 | 0.00 | 0.00 | 0.00 | 1012.6 | |
| 20260508102403 | 47 | 198 | 2.0 | 4.0 | 0.00 | 0.00 | 0.00 | 1012.9 | |
| 20260508101903 | 47 | 200 | 2.0 | 3.0 | 0.00 | 0.00 | 0.00 | 1013.6 | |
| 20260508101403 | 47 | 195 | 2.0 | 3.0 | 0.00 | 0.00 | 0.00 | 1013.2 | |
| 20260508095903 | 47 | 201 | 2.0 | 3.0 | 0.00 | 0.00 | 0.00 | 1012.9 | |
| 20260508095403 | 47 | 202 | 2.0 | 3.0 | 0.00 | 0.00 | 0.00 | 1012.9 | |
| 20260508094903 | 47 | 202 | 1.0 | 3.0 | 0.00 | 0.00 | 0.00 | 1012.9 | |
| 20260508094403 | 47 | 200 | 1.0 | 3.0 | 0.00 | 0.00 | 0.00 | 1013.2 | |
| 20260508093903 | 47 | 203 | 2.0 | 3.0 | 0.00 | 0.00 | 0.00 | 1012.9 | |
| 20260508093403 | 46 | 201 | 2.0 | 2.0 | 0.00 | 0.00 | 0.00 | 1013.2 | |
| 20260508092903 | 46 | 207 | 1.0 | 4.0 | 0.00 | 0.00 | 0.00 | 1013.2 | |
| 20260508092403 | 47 | 204 | 1.0 | 5.0 | 0.00 | 0.00 | 0.00 | 1013.6 | |
| 20260508091903 | 47 | 216 | 0.0 | 5.0 | 0.00 | 0.00 | 0.00 | 1012.9 | |
| 20260508091402 | 47 | 225 | 0.0 | 3.0 | 0.00 | 0.00 | 0.00 | 1013.2 | |
| 20260508090903 | 47 | 205 | 2.0 | 3.0 | 0.00 | 0.00 | 0.00 | 1013.2 | |
| 20260508090403 | 47 | 203 | 2.0 | 3.0 | 0.00 | 0.00 | 0.00 | 1012.9 | |
| 20260508085903 | 47 | 205 | 2.0 | 3.0 | 0.00 | 0.00 | 0.00 | 1012.6 | |
| 20260508085424 | 47 | 203 | 2.0 | 4.0 | 0.00 | 0.00 | 0.00 | 1012.9 | |
| 20260508084903 | 47 | 203 | 2.0 | 4.0 | 0.00 | 0.00 | 0.00 | 1012.6 | |
| 20260508084403 | 47 | 204 | 2.0 | 3.0 | 0.00 | 0.00 | 0.00 | 1013.6 | |
| 20260508083903 | 47 | 200 | 2.0 | 3.0 | 0.00 | 0.00 | 0.00 | 1013.2 | |
| 20260508083424 | 47 | 204 | 2.0 | 3.0 | 0.00 | 0.00 | 0.00 | 1013.2 | |
| 20260508082903 | 47 | 204 | 1.0 | 3.0 | 0.00 | 0.00 | 0.00 | 1013.2 | |
| 20260508082403 | 47 | 212 | 0.0 | 5.0 | 0.00 | 0.00 | 0.00 | 1013.6 | |
| 20260508081903 | 47 | 212 | 1.0 | 5.0 | 0.00 | 0.00 | 0.00 | 1012.9 | |
| 20260508081403 | 47 | 208 | 1.0 | 3.0 | 0.00 | 0.00 | 0.00 | 1012.6 | |
| 20260508080903 | 47 | 216 | 1.0 | 4.0 | 0.00 | 0.00 | 0.00 | 1012.9 | |
| 20260508080403 | 47 | 212 | 1.0 | 4.0 | 0.00 | 0.00 | 0.00 | 1013.2 | |
| 20260508075903 | 47 | 203 | 1.0 | 3.0 | 0.00 | 0.00 | 0.00 | 1013.2 | |
| 20260508075403 | 47 | 202 | 0.0 | 3.0 | 0.00 | 0.00 | 0.00 | 1012.9 | |
| 20260508074903 | 47 | 205 | 1.0 | 3.0 | 0.00 | 0.00 | 0.00 | 1012.9 | |
| 20260508074403 | 48 | 200 | 2.0 | 3.0 | 0.00 | 0.00 | 0.00 | 1012.9 | |
| 20260508073945 | 48 | 200 | 2.0 | 4.0 | 0.00 | 0.00 | 0.00 | 1012.6 | |
| 20260508073402 | 48 | 201 | 2.0 | 4.0 | 0.00 | 0.00 | 0.00 | 1012.9 | |
| 20260508072903 | 48 | 202 | 2.0 | 3.0 | 0.00 | 0.00 | 0.00 | 1012.9 | |
| 20260508072402 | 48 | 201 | 2.0 | 3.0 | 0.00 | 0.00 | 0.00 | 1013.2 | |
| 20260508071903 | 48 | 198 | 2.0 | 3.0 | 0.00 | 0.00 | 0.00 | 1013.6 | |
| 20260508071403 | 48 | 230 | 0.0 | 3.0 | 0.00 | 0.00 | 0.00 | 1013.6 | |
| 20260508070903 | 49 | 213 | 2.0 | 4.0 | 0.00 | 0.00 | 0.00 | 1013.2 | |
| 20260508070403 | 48 | 230 | 2.0 | 4.0 | 0.00 | 0.00 | 0.00 | 1013.2 | |
| 20260508065903 | 48 | 199 | 2.0 | 3.0 | 0.00 | 0.00 | 0.00 | 1013.2 | |
| 20260508065403 | 48 | 208 | 2.0 | 4.0 | 0.00 | 0.00 | 0.00 | 1013.9 | |
| 20260508064903 | 48 | 201 | 2.0 | 4.0 | 0.00 | 0.00 | 0.00 | 1013.2 | |
| 20260508064403 | 48 | 202 | 2.0 | 4.0 | 0.00 | 0.00 | 0.00 | 1013.9 | |
| 20260508063902 | 48 | 207 | 2.0 | 4.0 | 0.00 | 0.00 | 0.00 | 1013.9 | |
| 20260508063403 | 48 | 201 | 0.0 | 3.0 | 0.00 | 0.00 | 0.00 | 1013.6 | |
| 20260508062903 | 48 | 213 | 2.0 | 5.0 | 0.00 | 0.00 | 0.00 | 1013.6 | |
| 20260508062403 | 49 | 223 | 2.0 | 5.0 | 0.00 | 0.00 | 0.00 | 1013.9 | |
| 20260508061924 | 49 | 210 | 1.0 | 3.0 | 0.00 | 0.00 | 0.00 | 1013.9 | |
| 20260508061425 | 49 | 201 | 1.0 | 3.0 | 0.00 | 0.00 | 0.00 | 1013.6 | |
| 20260508060903 | 49 | 203 | 2.0 | 3.0 | 0.00 | 0.00 | 0.00 | 1013.6 | |
| 20260508060424 | 49 | 202 | 2.0 | 4.0 | 0.00 | 0.00 | 0.00 | 1013.2 | |
| 20260508055902 | 49 | 198 | 2.0 | 4.0 | 0.00 | 0.00 | 0.00 | 1013.6 | |
| 20260508055425 | 49 | 192 | 2.0 | 4.0 | 0.00 | 0.00 | 0.00 | 1013.2 | |
| 20260508054903 | 49 | 198 | 2.0 | 4.0 | 0.00 | 0.00 | 0.00 | 1013.6 | |
| 20260508054403 | 49 | 204 | 2.0 | 3.0 | 0.00 | 0.00 | 0.00 | 1013.6 | |
| 20260508053903 | 49 | 199 | 2.0 | 4.0 | 0.00 | 0.00 | 0.00 | 1013.6 | |
| 20260508053403 | 49 | 205 | 3.0 | 4.0 | 0.00 | 0.00 | 0.00 | 1013.2 | |
| 20260508052903 | 49 | 204 | 3.0 | 5.0 | 0.00 | 0.00 | 0.00 | 1013.6 | |
| 20260508052403 | 49 | 199 | 3.0 | 5.0 | 0.00 | 0.00 | 0.00 | 1013.9 | |
| 20260508051903 | 49 | 201 | 3.0 | 5.0 | 0.00 | 0.00 | 0.00 | 1013.9 | |
| 20260508051424 | 50 | 198 | 2.0 | 5.0 | 0.00 | 0.00 | 0.00 | 1013.2 | |
| 20260508050924 | 50 | 200 | 2.0 | 5.0 | 0.00 | 0.00 | 0.00 | 1013.6 | |
| 20260508050403 | 50 | 200 | 2.0 | 4.0 | 0.00 | 0.00 | 0.00 | 1013.6 | |
| 20260508045903 | 50 | 200 | 2.0 | 4.0 | 0.00 | 0.00 | 0.00 | 1013.6 | |
| 20260508045425 | 50 | 206 | 2.0 | 4.0 | 0.00 | 0.00 | 0.00 | 1013.6 | |
| 20260508044903 | 50 | 198 | 2.0 | 4.0 | 0.00 | 0.00 | 0.00 | 1013.6 | |
| 20260508044403 | 50 | 205 | 3.0 | 4.0 | 0.00 | 0.00 | 0.00 | 1013.6 | |
| 20260508043903 | 50 | 200 | 2.0 | 4.0 | 0.00 | 0.00 | 0.00 | 1013.6 | |
| 20260508043403 | 50 | 200 | 2.0 | 4.0 | 0.00 | 0.00 | 0.00 | 1014.3 | |
| 20260508042902 | 50 | 199 | 2.0 | 3.0 | 0.00 | 0.00 | 0.00 | 1013.6 | |
| 20260508042403 | 50 | 200 | 2.0 | 4.0 | 0.00 | 0.00 | 0.00 | 1013.6 | |
| 20260508041924 | 50 | 196 | 2.0 | 4.0 | 0.00 | 0.00 | 0.00 | 1013.9 | |
| 20260508041403 | 50 | 198 | 2.0 | 3.0 | 0.00 | 0.00 | 0.00 | 1013.6 | |
| 20260508040903 | 51 | 206 | 2.0 | 3.0 | 0.00 | 0.00 | 0.00 | 1013.9 | |
| 20260508040403 | 51 | 194 | 2.0 | 4.0 | 0.00 | 0.00 | 0.00 | 1013.6 | |
| 20260508035903 | 51 | 195 | 2.0 | 4.0 | 0.00 | 0.00 | 0.00 | 1013.2 | |
| 20260508035403 | 51 | 202 | 2.0 | 3.0 | 0.00 | 0.00 | 0.00 | 1013.6 | |
| 20260508034924 | 51 | 196 | 1.0 | 3.0 | 0.00 | 0.00 | 0.00 | 1013.2 | |
| 20260508034403 | 51 | 199 | 2.0 | 3.0 | 0.00 | 0.00 | 0.00 | 1013.2 | |
| 20260508033903 | 51 | 200 | 2.0 | 3.0 | 0.00 | 0.00 | 0.00 | 1013.2 | |
| 20260508033403 | 51 | 199 | 2.0 | 3.0 | 0.00 | 0.00 | 0.00 | 1013.2 | |
| 20260508032903 | 51 | 202 | 1.0 | 3.0 | 0.00 | 0.00 | 0.00 | 1013.6 | |
| 20260508032424 | 51 | 182 | 0.0 | 2.0 | 0.00 | 0.00 | 0.00 | 1013.2 | |
| 20260508031903 | 51 | 188 | 0.0 | 2.0 | 0.00 | 0.00 | 0.00 | 1013.2 | |
| 20260508031403 | 51 | 202 | 2.0 | 2.0 | 0.00 | 0.00 | 0.00 | 1013.9 | |
| 20260508030903 | 51 | 204 | 2.0 | 2.0 | 0.00 | 0.00 | 0.00 | 1014.3 | |
| 20260508030403 | 51 | 180 | 0.0 | 1.0 | 0.00 | 0.00 | 0.00 | 1014.3 | |
| 20260508025903 | 51 | 202 | 0.0 | 2.0 | 0.00 | 0.00 | 0.00 | 1013.2 | |
| 20260508025403 | 51 | 185 | 0.0 | 3.0 | 0.00 | 0.00 | 0.00 | 1013.2 | |
| 20260508024902 | 51 | 202 | 0.0 | 3.0 | 0.00 | 0.00 | 0.00 | 1013.2 | |
| 20260508024403 | 51 | 202 | 0.0 | 2.0 | 0.00 | 0.00 | 0.00 | 1013.2 | |
| 20260508023903 | 51 | 202 | 0.0 | 4.0 | 0.00 | 0.00 | 0.00 | 1013.6 | |
| 20260508023403 | 51 | 201 | 0.0 | 5.0 | 0.00 | 0.00 | 0.00 | 1013.6 | |
| 20260508022904 | 51 | 183 | 0.0 | 5.0 | 0.00 | 0.00 | 0.00 | 1013.2 | |
| 20260508022403 | 51 | 202 | 0.0 | 4.0 | 0.00 | 0.00 | 0.00 | 1013.2 | |
| 20260508021903 | 51 | 180 | 0.0 | 3.0 | 0.00 | 0.00 | 0.00 | 1013.6 | |
| 20260508021403 | 51 | 195 | 0.0 | 3.0 | 0.00 | 0.00 | 0.00 | 1013.6 | |
| 20260508020903 | 51 | 177 | 0.0 | 3.0 | 0.00 | 0.00 | 0.00 | 1013.2 | |
| 20260508020402 | 52 | 197 | 0.0 | 4.0 | 0.00 | 0.00 | 0.00 | 1013.9 | |
| 20260508015903 | 52 | 189 | 0.0 | 6.0 | 0.00 | 0.00 | 0.00 | 1012.9 | |
| 20260508015402 | 52 | 180 | 0.0 | 6.0 | 0.00 | 0.00 | 0.00 | 1012.9 | |
| 20260508014903 | 52 | 202 | 0.0 | 5.0 | 0.00 | 0.00 | 0.00 | 1013.2 | |
| 20260508014403 | 52 | 202 | 0.0 | 5.0 | 0.00 | 0.00 | 0.00 | 1013.2 | |
| 20260508013903 | 52 | 186 | 0.0 | 6.0 | 0.00 | 0.00 | 0.00 | 1013.2 | |
| 20260508013403 | 52 | 180 | 0.0 | 6.0 | 0.00 | 0.00 | 0.00 | 1013.2 | |
| 20260508012903 | 52 | 202 | 0.0 | 5.0 | 0.00 | 0.00 | 0.00 | 1012.9 | |
| 20260508012403 | 51 | 202 | 0.0 | 5.0 | 0.00 | 0.00 | 0.00 | 1012.9 | |
| 20260508011903 | 51 | 224 | 0.0 | 6.0 | 0.00 | 0.00 | 0.00 | 1012.9 | |
| 20260508011403 | 51 | 202 | 0.0 | 6.0 | 0.00 | 0.00 | 0.00 | 1012.9 | |
| 20260508010903 | 51 | 173 | 0.0 | 1.0 | 0.00 | 0.00 | 0.00 | 1012.9 | |
| 20260508010402 | 52 | 225 | 0.0 | 6.0 | 0.00 | 0.00 | 0.00 | 1013.2 | |
| 20260508005903 | 52 | 225 | 0.0 | 6.0 | 0.00 | 0.00 | 0.00 | 1013.6 | |
| 20260508005403 | 52 | 224 | 0.0 | 5.0 | 0.00 | 0.00 | 0.00 | 1013.6 | |
| 20260508004903 | 52 | 225 | 0.0 | 5.0 | 0.00 | 0.00 | 0.00 | 1013.2 | |
| 20260508004403 | 53 | 269 | 0.0 | 6.0 | 0.00 | 0.00 | 0.00 | 1013.2 | |
| 20260508003903 | 53 | 249 | 0.0 | 6.0 | 0.00 | 0.00 | 0.00 | 1013.2 | |
| 20260508003403 | 53 | 170 | 0.0 | 4.0 | 0.00 | 0.00 | 0.00 | 1013.6 | |
| 20260508002903 | 54 | 259 | 1.0 | 3.0 | 0.00 | 0.00 | 0.00 | 1013.2 | |
| 20260508002403 | 54 | 289 | 0.0 | 5.0 | 0.00 | 0.00 | 0.00 | 1013.2 | |
| 20260508001903 | 54 | 284 | 0.0 | 5.0 | 0.00 | 0.00 | 0.00 | 1013.6 | |
| 20260508001403 | 55 | 237 | 1.0 | 6.0 | 0.00 | 0.00 | 0.00 | 1012.9 | |
| 20260508000903 | 55 | 261 | 2.0 | 6.0 | 0.00 | 0.00 | 0.00 | 1013.2 | |
| 20260508000404 | 56 | 251 | 1.0 | 4.0 | 0.00 | 0.00 | 0.00 | 1013.2 | |
| 20260507235903 | 56 | 249 | 0.0 | 6.0 | 0.00 | 0.00 | 0.00 | 1012.9 | |
| 20260507235403 | 57 | 263 | 2.0 | 6.0 | 0.00 | 0.00 | 0.00 | 1012.9 | |
| 20260507234903 | 58 | 238 | 0.0 | 6.0 | 0.00 | 0.00 | 0.00 | 1012.6 | |
| 20260507234403 | 58 | 275 | 2.0 | 6.0 | 0.00 | 0.00 | 0.00 | 1012.6 | |
| 20260507233903 | 58 | 273 | 2.0 | 6.0 | 0.00 | 0.00 | 0.00 | 1012.9 | |
| 20260507233403 | 59 | 279 | 2.0 | 10.0 | 0.00 | 0.00 | 0.00 | 1013.6 | |
| 20260507232903 | 58 | 270 | 4.0 | 10.0 | 0.00 | 0.00 | 0.00 | 1012.9 | |
| 20260507232403 | 58 | 234 | 1.0 | 8.0 | 0.00 | 0.00 | 0.00 | 1012.9 | |
| 20260507231902 | 58 | 264 | 2.0 | 8.0 | 0.00 | 0.00 | 0.00 | 1013.6 | |
| 20260507231403 | 59 | 288 | 2.0 | 9.0 | 0.00 | 0.00 | 0.00 | 1013.6 | |
| 20260507230903 | 59 | 319 | 4.0 | 9.0 | 0.00 | 0.00 | 0.00 | 1013.2 | |
| 20260507230403 | 59 | 287 | 4.0 | 9.0 | 0.00 | 0.00 | 0.00 | 1013.2 | |
| 20260507225903 | 60 | 292 | 4.0 | 9.0 | 0.00 | 0.00 | 0.00 | 1012.9 | |
| 20260507225402 | 61 | 289 | 4.0 | 9.0 | 0.00 | 0.00 | 0.00 | 1013.2 | |
| 20260507224903 | 61 | 328 | 3.0 | 9.0 | 0.00 | 0.00 | 0.00 | 1013.2 | |
| 20260507224403 | 61 | 265 | 4.0 | 8.0 | 0.00 | 0.00 | 0.00 | 1012.6 | |
| 20260507223903 | 61 | 293 | 2.0 | 7.0 | 0.00 | 0.00 | 0.00 | 1012.6 | |
| 20260507223424 | 61 | 315 | 2.0 | 9.0 | 0.00 | 0.00 | 0.00 | 1012.9 | |
| 20260507222924 | 61 | 274 | 4.0 | 10.0 | 0.00 | 0.00 | 0.00 | 1013.2 | |
| 20260507222403 | 60 | 303 | 4.0 | 10.0 | 0.00 | 0.00 | 0.00 | 1012.9 | |
| 20260507221903 | 60 | 289 | 6.0 | 10.0 | 0.00 | 0.00 | 0.00 | 1013.9 | |
| 20260507221403 | 61 | 312 | 2.0 | 15.0 | 0.00 | 0.00 | 0.00 | 1012.6 | |
| 20260507220903 | 60 | 291 | 7.0 | 15.0 | 0.00 | 0.00 | 0.00 | 1013.2 | |
| 20260507220402 | 61 | 312 | 3.0 | 8.0 | 0.00 | 0.00 | 0.00 | 1013.2 | |
| 20260507215903 | 60 | 28 | 3.0 | 14.0 | 0.00 | 0.00 | 0.00 | 1013.6 | |
| 20260507215403 | 60 | 299 | 7.0 | 14.0 | 0.00 | 0.00 | 0.00 | 1013.2 | |
| 20260507214903 | 60 | 277 | 5.0 | 15.0 | 0.00 | 0.00 | 0.00 | 1012.9 | |
| 20260507214403 | 60 | 277 | 6.0 | 15.0 | 0.00 | 0.00 | 0.00 | 1013.6 | |
| 20260507213925 | 59 | 293 | 6.0 | 12.0 | 0.00 | 0.00 | 0.00 | 1012.9 | |
| 20260507213425 | 60 | 295 | 3.0 | 8.0 | 0.00 | 0.00 | 0.00 | 1012.9 | |
| 20260507212905 | 59 | 348 | 3.0 | 9.0 | 0.00 | 0.00 | 0.00 | 1013.2 | |
| 20260507212403 | 58 | 301 | 4.0 | 10.0 | 0.00 | 0.00 | 0.00 | 1013.2 | |
| 20260507211903 | 58 | 303 | 5.0 | 17.0 | 0.00 | 0.00 | 0.00 | 1012.9 | |
| 20260507211403 | 57 | 287 | 6.0 | 17.0 | 0.00 | 0.00 | 0.00 | 1012.9 | |
| 20260507210903 | 58 | 291 | 8.0 | 15.0 | 0.00 | 0.00 | 0.00 | 1013.6 | |
| 20260507210403 | 60 | 285 | 4.0 | 14.0 | 0.00 | 0.00 | 0.00 | 1012.9 | |
| 20260507205403 | 58 | 271 | 4.0 | 14.0 | 0.00 | 0.00 | 0.00 | 1012.9 | |
| 20260507204903 | 60 | 305 | 7.0 | 13.0 | 0.00 | 0.00 | 0.00 | 1013.2 | |
| 20260507204404 | 59 | 309 | 4.0 | 11.0 | 0.00 | 0.00 | 0.00 | 1012.6 | |
| 20260507203903 | 59 | 315 | 4.0 | 10.0 | 0.00 | 0.00 | 0.00 | 1013.6 | |
| 20260507203424 | 59 | 328 | 4.0 | 10.0 | 0.00 | 0.00 | 0.00 | 1012.9 | |
| 20260507202902 | 58 | 341 | 3.0 | 10.0 | 0.00 | 0.00 | 0.00 | 1013.2 | |
| 20260507202403 | 58 | 304 | 3.0 | 10.0 | 0.00 | 0.00 | 0.00 | 1013.6 | |
| 20260507201903 | 57 | 302 | 4.0 | 14.0 | 0.00 | 0.00 | 0.00 | 1013.6 | |
| 20260507201403 | 57 | 282 | 7.0 | 14.0 | 0.00 | 0.00 | 0.00 | 1013.6 | |
| 20260507200903 | 57 | 317 | 4.0 | 15.0 | 0.00 | 0.00 | 0.00 | 1012.9 | |
| 20260507200403 | 57 | 303 | 7.0 | 15.0 | 0.00 | 0.00 | 0.00 | 1013.2 | |
| 20260507195903 | 58 | 330 | 6.0 | 15.0 | 0.00 | 0.00 | 0.00 | 1013.2 | |
| 20260507195403 | 58 | 306 | 6.0 | 15.0 | 0.00 | 0.00 | 0.00 | 1012.9 | |
| 20260507194903 | 58 | 305 | 6.0 | 14.0 | 0.00 | 0.00 | 0.00 | 1013.2 | |
| 20260507194403 | 57 | 26 | 3.0 | 13.0 | 0.00 | 0.00 | 0.00 | 1013.2 | |
| 20260507193902 | 57 | 336 | 5.0 | 13.0 | 0.00 | 0.00 | 0.00 | 1013.2 | |
| 20260507193403 | 57 | 329 | 4.0 | 18.0 | 0.00 | 0.00 | 0.00 | 1013.2 | |
| 20260507192903 | 56 | 260 | 6.0 | 18.0 | 0.00 | 0.00 | 0.00 | 1013.2 | |
| 20260507192403 | 57 | 280 | 8.0 | 17.0 | 0.00 | 0.00 | 0.00 | 1013.2 | |
| 20260507191903 | 57 | 308 | 5.0 | 14.0 | 0.00 | 0.00 | 0.00 | 1013.6 | |
| 20260507191403 | 57 | 304 | 6.0 | 15.0 | 0.00 | 0.00 | 0.00 | 1013.2 | |
| 20260507190903 | 57 | 322 | 5.0 | 15.0 | 0.00 | 0.00 | 0.00 | 1013.9 | |
| 20260507190424 | 56 | 311 | 6.0 | 13.0 | 0.00 | 0.00 | 0.00 | 1013.2 | |
| 20260507185903 | 56 | 317 | 6.0 | 17.0 | 0.00 | 0.00 | 0.00 | 1013.9 | |
| 20260507185404 | 56 | 305 | 6.0 | 17.0 | 0.00 | 0.00 | 0.00 | 1013.6 | |
| 20260507184903 | 56 | 316 | 3.0 | 15.0 | 0.00 | 0.00 | 0.00 | 1013.2 | |
| 20260507184403 | 56 | 328 | 5.0 | 19.0 | 0.00 | 0.00 | 0.00 | 1013.9 | |
| 20260507183903 | 56 | 301 | 5.0 | 19.0 | 0.00 | 0.00 | 0.00 | 1013.9 | |
| 20260507183403 | 56 | 343 | 5.0 | 12.0 | 0.00 | 0.00 | 0.00 | 1013.9 | |
| 20260507182903 | 56 | 312 | 6.0 | 17.0 | 0.00 | 0.00 | 0.00 | 1014.6 | |
| 20260507182403 | 55 | 302 | 7.0 | 17.0 | 0.00 | 0.00 | 0.00 | 1013.9 | |
| 20260507181903 | 55 | 15 | 4.0 | 14.0 | 0.00 | 0.00 | 0.00 | 1013.9 | |
| 20260507181403 | 54 | 300 | 7.0 | 18.0 | 0.00 | 0.00 | 0.00 | 1013.6 | |
| 20260507180924 | 55 | 287 | 10.0 | 18.0 | 0.00 | 0.00 | 0.00 | 1013.9 | |
| 20260507175403 | 55 | 292 | 8.0 | 17.0 | 0.00 | 0.00 | 0.00 | 1013.9 | |
| 20260507173903 | 54 | 314 | 6.0 | 16.0 | 0.00 | 0.00 | 0.00 | 1013.9 | |
| 20260507173403 | 55 | 296 | 7.0 | 16.0 | 0.00 | 0.00 | 0.00 | 1013.9 | |
| 20260507172903 | 55 | 308 | 4.0 | 14.0 | 0.00 | 0.00 | 0.00 | 1014.3 | |
| 20260507171403 | 53 | 287 | 8.0 | 18.0 | 0.00 | 0.00 | 0.00 | 1013.9 | |
| 20260507170924 | 53 | 299 | 5.0 | 18.0 | 0.00 | 0.00 | 0.00 | 1014.3 | |
| 20260507170403 | 53 | 298 | 6.0 | 17.0 | 0.00 | 0.00 | 0.00 | 1014.6 | |
| 20260507165903 | 53 | 305 | 7.0 | 17.0 | 0.00 | 0.00 | 0.00 | 1014.6 | |
| 20260507165424 | 53 | 286 | 7.0 | 14.0 | 0.00 | 0.00 | 0.00 | 1014.3 | |
| 20260507164903 | 52 | 288 | 5.0 | 12.0 | 0.00 | 0.00 | 0.00 | 1014.3 | |
| 20260507164445 | 52 | 295 | 4.0 | 19.0 | 0.00 | 0.00 | 0.00 | 1014.6 | |
| 20260507163902 | 52 | 277 | 7.0 | 21.0 | 0.00 | 0.00 | 0.00 | 1014.6 | |
| 20260507163403 | 52 | 273 | 5.0 | 21.0 | 0.00 | 0.00 | 0.00 | 1014.6 | |
| 20260507162924 | 52 | 304 | 5.0 | 15.0 | 0.00 | 0.00 | 0.00 | 1014.9 | |
| 20260507162403 | 52 | 291 | 5.0 | 18.0 | 0.00 | 0.00 | 0.00 | 1014.6 | |
| 20260507161903 | 52 | 286 | 8.0 | 18.0 | 0.00 | 0.00 | 0.00 | 1014.3 | |
| 20260507161402 | 51 | 346 | 3.0 | 12.0 | 0.00 | 0.00 | 0.00 | 1014.3 | |
| 20260507160903 | 51 | 266 | 7.0 | 15.0 | 0.00 | 0.00 | 0.00 | 1014.3 | |
| 20260507160445 | 51 | 284 | 7.0 | 15.0 | 0.00 | 0.00 | 0.00 | 1014.6 | |
| 20260507155903 | 51 | 279 | 8.0 | 14.0 | 0.00 | 0.00 | 0.00 | 1014.9 | |
| 20260507155403 | 51 | 292 | 6.0 | 14.0 | 0.00 | 0.00 | 0.00 | 1014.9 | |
| 20260507154903 | 50 | 281 | 4.0 | 9.0 | 0.00 | 0.00 | 0.00 | 1014.3 | |
| 20260507154403 | 51 | 321 | 3.0 | 17.0 | 0.00 | 0.00 | 0.00 | 1014.6 | |
| 20260507153903 | 50 | 290 | 7.0 | 17.0 | 0.00 | 0.00 | 0.00 | 1014.6 | |
| 20260507153403 | 50 | 284 | 5.0 | 14.0 | 0.00 | 0.00 | 0.00 | 1014.6 | |
| 20260507152903 | 50 | 260 | 6.0 | 11.0 | 0.00 | 0.00 | 0.00 | 1014.3 | |
| 20260507152403 | 50 | 303 | 4.0 | 15.0 | 0.00 | 0.00 | 0.00 | 1014.9 | |
| 20260507151903 | 49 | 293 | 5.0 | 15.0 | 0.00 | 0.00 | 0.00 | 1014.6 | |
| 20260507151424 | 49 | 288 | 5.0 | 18.0 | 0.00 | 0.00 | 0.00 | 1014.6 | |
| 20260507150903 | 49 | 272 | 9.0 | 18.0 | 0.00 | 0.00 | 0.00 | 1014.3 | |
| 20260507150403 | 49 | 260 | 5.0 | 15.0 | 0.00 | 0.00 | 0.00 | 1013.9 | |
| 20260507145904 | 49 | 293 | 6.0 | 12.0 | 0.00 | 0.00 | 0.00 | 1013.9 | |
| 20260507145403 | 49 | 294 | 6.0 | 12.0 | 0.00 | 0.00 | 0.00 | 1013.9 | |
| 20260507144903 | 49 | 302 | 4.0 | 12.0 | 0.00 | 0.00 | 0.00 | 1014.9 | |
| 20260507144403 | 49 | 329 | 2.0 | 12.0 | 0.00 | 0.00 | 0.00 | 1014.6 | |
| 20260507143902 | 49 | 313 | 5.0 | 12.0 | 0.00 | 0.00 | 0.00 | 1014.3 | |
| 20260507143403 | 49 | 323 | 4.0 | 12.0 | 0.00 | 0.00 | 0.00 | 1014.6 |